Regional Weather Roundup
Issued by NWS

Home | Current Version | Previous Version | Graphics & Text | Print | Product List | Glossary On
Versions: 1 2 3 4 5 6 7 8 9 10 11 12 13 14 15 16 17 18 19 20 21 22 23 24 25 26 27 28 29 30 31 32 33 34 35 36 37 38 39 40 41 42 43 44 45 46 47 48 49 50
000
ASUS43 KIND 160859
RWRIN

WEATHER ROUNDUP FOR INDIANA
NATIONAL WEATHER SERVICE INDIANAPOLIS IN
400 AM EST SAT DEC 16 2017

NOTE: "FAIR" INDICATES FEW OR NO CLOUDS BELOW 12,000 FEET WITH NO
SIGNIFICANT WEATHER AND/OR OBSTRUCTIONS TO VISIBILITY.

* - STATION DOES NOT REPORT WEATHER SUCH AS PRECIPITATION OR FOG.

+ - STATION NOT QUALITY CONTROLLED BY THE NATIONAL WEATHER SERVICE.
    USE DATA WITH CAUTION...ESPECIALLY DEWPOINT AND RELATIVE
    HUMIDITY OBSERVATIONS.

INZ001>003-010>013-019-020-161000-
NORTHWEST INDIANA

CITY           SKY/WX    TMP DP  RH WIND       PRES   REMARKS
MONTICELLO +   CLOUDY    33  21  60 S10G16    29.95F WCI  25

$$

LMZ046-743>745-161000-
SOUTHERN LAKE MICHIGAN

STATION/POSITION TIME  TEMP    WIND        PRES    WAVE
                       AIR SEA DIR/SP/G            HT
                 (UTC) (F)     (DEG/KT/KT) (MB)    (FT)
BURNS HARBOR     0840   38     210/ 18/ 23 1011.9F
MICHIGAN CITY    0830   36     190/ 16/ 18   N/A

$$

INZ004-005-014>016-021>024-161000-
NORTH CENTRAL INDIANA

CITY           SKY/WX    TMP DP  RH WIND       PRES   REMARKS
GOSHEN         CLOUDY    33  23  66 SW15      29.90F WCI  23
PERU/GRISSOM   CLOUDY    34  23  64 SW15      29.95F WCI  24
SOUTH BEND     CLOUDY    33  24  69 SW14      29.90F WCI  23

$$

INZ006>009-017-018-025>027-161000-
NORTHEAST INDIANA

CITY           SKY/WX    TMP DP  RH WIND       PRES   REMARKS
FORT WAYNE     CLOUDY    34  24  67 SW15      29.95F WCI  24
KENDALLVILLE + CLOUDY    32  23  67 SW12      29.91F WCI  23

$$

INZ028-029-035-036-043>045-051>053-161000-
WEST CENTRAL INDIANA

CITY           SKY/WX    TMP DP  RH WIND       PRES   REMARKS
LAFAYETTE      CLOUDY    33  24  69 SW6G16    29.98F WCI  28
TERRE HAUTE    CLOUDY    33  24  69 S12       30.03F WCI  24

$$

INZ030>032-037>040-046>048-054>057-064-065-161000-
CENTRAL INDIANA

CITY           SKY/WX    TMP DP  RH WIND       PRES   REMARKS
INDIANAPOLIS   CLOUDY    34  24  67 S13       30.02F WCI  25
-EAGLE CREEK   CLOUDY    35  24  64 SW10      30.00F WCI  27
KOKOMO +       PTCLDY    34  23  64 SW16G25   29.98F WCI  24
MT COMFORT *+  CLOUDY    32  27  80 S10       30.01F WCI  24
SHELBYVILLE    CLOUDY    32  24  72 S9        30.04F WCI  24

$$

INZ033-034-041-042-049-050-058-059-161000-
EAST CENTRAL INDIANA

CITY           SKY/WX    TMP DP  RH WIND       PRES   REMARKS
MUNCIE         CLOUDY    34  23  64 SW10      30.00S WCI  26
RICHMOND +     CLOUDY    30  25  80 SW13      30.04F WCI  20

$$

INZ060-061-067>069-081>083-085>088-161000-
SOUTHWEST INDIANA

CITY           SKY/WX    TMP DP  RH WIND       PRES   REMARKS
EVANSVILLE     CLEAR     31  26  82 SW3       30.13R
HUNTINGBURG +  CLEAR     33  26  75 S9        30.12S WCI  25

$$

INZ062-063-066-070>080-084-089>092-161000-
SOUTH CENTRAL AND SOUTHEAST INDIANA

CITY           SKY/WX    TMP DP  RH WIND       PRES   REMARKS
BLOOMINGTON    CLOUDY    33  24  69 SW8       30.05F WCI  26
SEYMOUR +      CLOUDY    32  25  74 S9        30.09S WCI  24

$$





USA.gov is the U.S. government's official web portal to all federal, state and local government web resources and services.